Showing default

SKYSAT C3, 41774

Orbit data source: Space-Track

SKYSAT C3, 41774 is a payload satellite owned by Terra Bella (US) in SSO that was launched on Fri, 16 Sep 2016 UTC via a VEGA launch vehicle from the French Guiana (FRGUI). Payload-class satellites include a variety of spacecraft equipped with specific instruments for various scientific and technological missions. These include communications satellites like Starlink; space stations such as the ISS; scientific satellites like the Hubble; Earth observation satellites from companies like Planet Labs, Umbra, and HawkEye 360; GPS; miniature CubeSats for education and research; and military/defense satellites.

Loading next visibility...
Identifier
41774, 2016-058E
Orbit
SSO
Country
Flag of USUS
Related business
Manufacturer
SS/Loral (MDA)
Mission
Partially operational Commercial Imaging
Bus & Motor
SKYSAT-GEN2, Unknown motor
Mass
110 kg wet, 110 kg dry
Launch date (UTC)
2016-09-16 (10 years ago)
Launch vehicle
VEGA
Launch site
French Guiana (FRGUI)
Object type
Payload
Rocket body
Debris
Shape & HBR
Box, 1.0 m
Radar Cross Section
0.888 m², Medium (>0.1 m² and < 1m²)

Expand to show TLE details & history
Last TLE update: 11 hours ago

TLE from 11 hours ago
0 SKYSAT C3
1 41774U 16058E   26248.04598672  .00015007  00000-0  21875-3 0  9995
2 41774  96.8970 275.9793 0002549  78.8811 281.2732 15.55784526558516
Epoch: 2026-09-05T01:06Z
TLE epoch observation values (Epoch: 2026-09-05T01:06:13.252Z)
Latitude
0.00003°
Longitude
-84.73701°
Altitude
402.689 km
Speed
7.669 km/s
True Right ascension
18h 23m 55s
True Declination
0° 00' 00"
Sunlit
Object was in full shadow at epoch
Visualization orbit readout
Latitude
Unknown
Longitude
Unknown
Altitude
Unknown
Speed
Unknown
Apparent Right ascension
Unknown
Apparent Declination
Unknown
Sunlit
N/A
Visualization observer readout
Local Sidereal Time
04:21:22
Azimuth
Unknown
Elevation
Unknown
Doppler factor
Unknown
Orbital elements
Apogee altitude
398.497 km
Perigee altitude
395.043 km
Semi-major axis
6,774.907 km
Eccentricity
0.00025
Inclination
96.897°
RAAN
275.9793°
Arg. of periapsis
78.8811°
True anomaly
281.24455°
Mean anomaly
281.2732°
Eccentric anomaly
281.25888°
Mean motion
3.89214 °/min
Orbital period
92.49 mins
BSTAR
0.00021875
Loading maneuver chart data...
Computing Atmospheric mass density...
Loading historical data...
Loading historical data...
Loading historical data...
Loading historical data...
Loading historical data...
Loading historical data...
Loading historical data...

Documentation

Showing up to 5 results
|